Location: Kitchener-Waterloo
(43.4500°N, 80.5000°W)
Time: 20:19:15
(UTC-04:00)

ISS - All Passes

Search period start: 29 May 2015 00:00
Search period end: 08 June 2015 00:00
Orbit: 399 x 404 km, 51.6° (Epoch: 29 May)

Date Brightness Start Highest point End Pass type
(mag) Time Alt. Az. Time Alt. Az. Time Alt. Az.
29 May - 00:37:51 10° WSW 00:41:01 47° NNW 00:44:11 10° NE visible
29 May - 02:15:29 10° WNW 02:17:59 20° N 02:20:29 10° NE visible
29 May - 03:52:27 10° NW 03:55:10 24° NNE 03:57:54 10° ENE visible
29 May - 05:28:39 10° WNW 05:31:56 86° NNE 05:35:12 10° ESE daylight
29 May - 07:06:27 10° WSW 07:07:57 12° SW 07:09:20 10° SSW daylight
29 May - 22:10:05 10° SSE 22:11:41 13° SE 22:13:22 10° E night (unlit)
29 May - 23:44:28 10° WSW 23:47:43 80° NNW 23:50:59 10° NE visible
30 May - 01:21:50 10° WNW 01:24:30 23° NNW 01:27:11 10° NE visible
30 May - 02:59:10 10° NW 03:01:41 20° N 03:04:13 10° ENE visible
30 May - 04:35:27 10° NW 04:38:38 50° NNE 04:41:50 10° ESE visible
30 May - 06:12:13 10° W 06:14:53 23° SW 06:17:31 10° S daylight
30 May - 22:51:19 10° SW 22:54:29 54° SE 22:57:41 10° ENE visible
31 May - 00:28:09 10° W 00:31:03 29° NNW 00:33:58 10° NE visible
31 May - 02:05:46 10° NW 02:08:11 19° N 02:10:37 10° NE visible
31 May - 03:42:16 10° NW 03:45:16 33° NNE 03:48:17 10° E visible
31 May - 05:18:38 10° WNW 05:21:45 42° SW 05:24:51 10° SSE daylight
31 May - 21:58:30 10° SSW 22:01:19 28° SE 22:04:11 10° ENE visible
31 May - 23:34:33 10° W 23:37:39 42° NNW 23:40:46 10° NE visible
01 Jun - 01:12:12 10° NW 01:14:39 19° N 01:17:07 10° NE visible
01 Jun - 02:49:04 10° NW 02:51:50 25° NNE 02:54:36 10° ENE visible
01 Jun - 04:25:16 10° WNW 04:28:32 82° SW 04:31:48 10° SE visible
01 Jun - 06:03:45 10° WSW 06:04:31 10° SW 06:05:08 10° SW daylight
01 Jun - 21:06:15 10° S 21:08:13 15° SE 21:10:16 10° E daylight
01 Jun - 22:41:04 10° WSW 22:44:18 70° NNW 22:47:34 10° NE visible
02 Jun - 00:18:31 10° WNW 00:21:08 22° NNW 00:23:46 10° NE visible
02 Jun - 01:55:47 10° NW 01:58:20 21° N 02:00:54 10° ENE visible
02 Jun - 03:32:01 10° NW 03:35:15 56° NNE 03:38:27 10° ESE visible
02 Jun - 05:08:56 10° W 05:11:25 20° SW 05:13:51 10° S visible
02 Jun - 21:47:50 10° SW 21:51:02 64° SE 21:54:15 10° ENE visible
02 Jun - 23:24:48 10° WNW 23:27:39 27° NNW 23:30:30 10° NE visible
03 Jun - 01:02:22 10° NW 01:04:47 19° N 01:07:13 10° NE visible
03 Jun - 02:38:48 10° NW 02:41:51 36° NNE 02:44:55 10° E visible
03 Jun - 04:15:14 10° WNW 04:18:16 36° SW 04:21:18 10° SSE visible
03 Jun - 20:54:52 10° SSW 20:57:49 33° SE 21:00:47 10° ENE daylight
03 Jun - 22:31:08 10° W 22:34:12 38° NNW 22:37:16 10° NE visible
04 Jun - 00:08:48 10° NW 00:11:14 19° N 00:13:40 10° NE visible
04 Jun - 01:45:34 10° NW 01:48:23 26° NNE 01:51:13 10° ENE visible
04 Jun - 03:21:47 10° WNW 03:25:03 71° SW 03:28:17 10° SE visible
04 Jun - 20:02:25 10° S 20:04:39 18° SE 20:06:58 10° E daylight
04 Jun - 21:37:35 10° WSW 21:40:48 61° NNW 21:44:02 10° NE visible
04 Jun - 23:15:06 10° WNW 23:17:41 21° N 23:20:15 10° NE visible
05 Jun - 00:52:16 10° NW 00:54:52 21° N 00:57:28 10° ENE visible
05 Jun - 02:28:29 10° NW 02:31:43 64° NNE 02:34:58 10° ESE visible
05 Jun - 04:05:37 10° W 04:07:51 17° SW 04:10:02 10° S night (unlit)
05 Jun - 20:44:15 10° SW 20:47:29 75° SE 20:50:43 10° ENE daylight
05 Jun - 22:21:21 10° WNW 22:24:08 26° NNW 22:26:56 10° NE visible
05 Jun - 23:58:51 10° NW 00:01:18 19° N 00:03:45 10° NE visible
06 Jun - 01:35:14 10° NW 01:38:19 39° NNE 01:41:25 10° E visible
06 Jun - 03:11:44 10° WNW 03:14:41 31° SW 03:17:37 10° SSE visible
06 Jun - 19:51:11 10° SSW 19:54:12 38° SE 19:57:15 10° ENE daylight
06 Jun - 21:27:37 10° W 21:30:39 35° NNW 21:33:41 10° NE visible
06 Jun - 23:05:17 10° NW 23:07:43 19° N 23:10:08 10° NE visible
07 Jun - 00:41:58 10° NW 00:44:50 28° NNE 00:47:43 10° E visible
07 Jun - 02:18:13 10° WNW 02:21:27 60° SW 02:24:39 10° SE visible
07 Jun - 18:58:32 10° S 19:01:00 21° SE 19:03:32 10° E daylight
07 Jun - 20:34:01 10° WSW 20:37:12 54° NNW 20:40:24 10° NE daylight
07 Jun - 22:11:35 10° WNW 22:14:07 20° N 22:16:39 10° NE visible
07 Jun - 23:48:40 10° NW 23:51:18 22° NNE 23:53:57 10° ENE visible
